EZY45ZD EGJJ-EGKK

Flight info

Callsign EZY45ZD
Flight time 0h 37m
Altitude 23000
Route ORIST L982 VASUX
Aircraft A320/M-SDE3FGHIRWY/LB1

Departure

Time 2026-05-06 16:22
Airport Jersey Airport (EGJJ)

Arrival

Time 2026-05-06 16:59
Airport London Gatwick Airport (EGKK)
Time Latitude Longitude Altitude Speed Heading
2026-05-06 15:58 49.20501 -2.19676 280 ft 0 kts
2026-05-06 16:14 49.20492 -2.19676 280 ft 2 kts
2026-05-06 16:14 49.20475 -2.19678 280 ft 3 kts 352°
2026-05-06 16:14 49.20458 -2.19672 283 ft 3 kts 331°
2026-05-06 16:15 49.20444 -2.19654 285 ft 3 kts 294°
2026-05-06 16:15 49.20441 -2.19642 285 ft 0 kts 279°
2026-05-06 16:18 49.20443 -2.19655 285 ft 5 kts 278°
2026-05-06 16:19 49.20444 -2.19704 283 ft 4 kts 267°
2026-05-06 16:19 49.20437 -2.19785 280 ft 10 kts 263°
2026-05-06 16:19 49.20440 -2.19893 280 ft 9 kts 298°
2026-05-06 16:19 49.20493 -2.19926 280 ft 9 kts 339°
2026-05-06 16:20 49.20523 -2.20010 280 ft 10 kts 284°
2026-05-06 16:20 49.20543 -2.20116 281 ft 10 kts 288°
2026-05-06 16:20 49.20574 -2.20271 282 ft 22 kts 287°
2026-05-06 16:20 49.20623 -2.20529 283 ft 26 kts 282°
2026-05-06 16:21 49.20656 -2.20697 281 ft 15 kts 340°
2026-05-06 16:21 49.20707 -2.20635 280 ft 0 kts 81°
2026-05-06 16:21 49.20707 -2.20633 280 ft 2 kts 81°
2026-05-06 16:22 49.20736 -2.20310 285 ft 74 kts 82°
2026-05-06 16:22 49.20839 -2.19115 294 ft 147 kts 80°
2026-05-06 16:22 49.20976 -2.17471 939 ft 164 kts 82°
2026-05-06 16:22 49.21121 -2.15744 1806 ft 164 kts 80°
2026-05-06 16:23 49.21286 -2.13982 2425 ft 170 kts 80°
2026-05-06 16:23 49.21441 -2.12137 2878 ft 186 kts 80°
2026-05-06 16:23 49.21607 -2.10086 3335 ft 202 kts 81°
2026-05-06 16:23 49.21788 -2.07869 3820 ft 217 kts 79°
2026-05-06 16:24 49.22360 -2.05766 4601 ft 216 kts 47°
2026-05-06 16:24 49.23607 -2.04544 4931 ft 216 kts 11°
2026-05-06 16:24 49.25104 -2.04393 5068 ft 216 kts
2026-05-06 16:24 49.26610 -2.04342 5720 ft 219 kts
2026-05-06 16:25 49.28196 -2.04276 6298 ft 236 kts
2026-05-06 16:25 49.29895 -2.04199 6837 ft 254 kts
2026-05-06 16:25 49.31698 -2.04110 7442 ft 268 kts
2026-05-06 16:25 49.33583 -2.04016 8256 ft 273 kts
2026-05-06 16:26 49.35500 -2.03919 9127 ft 278 kts
2026-05-06 16:26 49.37445 -2.03820 9986 ft 282 kts
2026-05-06 16:26 49.39424 -2.03718 10770 ft 286 kts
2026-05-06 16:26 49.41431 -2.03615 11581 ft 289 kts
2026-05-06 16:27 49.43451 -2.03507 12385 ft 293 kts
2026-05-06 16:27 49.45501 -2.03397 13181 ft 296 kts
2026-05-06 16:27 49.47573 -2.03292 13952 ft 299 kts
2026-05-06 16:27 49.49672 -2.03184 14640 ft 303 kts
2026-05-06 16:28 49.51784 -2.03074 15321 ft 306 kts
2026-05-06 16:28 49.53930 -2.02960 15998 ft 310 kts
2026-05-06 16:28 49.56067 -2.02843 16674 ft 313 kts
2026-05-06 16:28 49.58261 -2.02722 17351 ft 316 kts
2026-05-06 16:29 49.60474 -2.02606 18018 ft 320 kts
2026-05-06 16:29 49.62705 -2.02489 18628 ft 323 kts
2026-05-06 16:29 49.64962 -2.02369 19212 ft 326 kts
2026-05-06 16:29 49.67243 -2.02247 19794 ft 329 kts
2026-05-06 16:30 49.69544 -2.02125 20377 ft 332 kts
2026-05-06 16:30 49.71086 -2.02044 20755 ft 334 kts
2026-05-06 16:30 49.74178 -2.01883 21525 ft 338 kts
2026-05-06 16:30 49.76536 -2.01753 22093 ft 341 kts
2026-05-06 16:31 49.78890 -2.01143 22637 ft 345 kts 15°
2026-05-06 16:31 49.81161 -1.99736 22894 ft 359 kts 27°
2026-05-06 16:31 49.83417 -1.97900 22993 ft 375 kts 26°
2026-05-06 16:31 49.85785 -1.95980 23004 ft 392 kts 26°
2026-05-06 16:32 49.88260 -1.93982 22994 ft 409 kts 26°
2026-05-06 16:32 49.90826 -1.91913 22996 ft 422 kts 26°
2026-05-06 16:32 49.93450 -1.89800 23000 ft 424 kts 26°
2026-05-06 16:32 49.96069 -1.87688 23000 ft 424 kts 26°
2026-05-06 16:33 49.98686 -1.85571 23001 ft 424 kts 27°
2026-05-06 16:33 50.01274 -1.83475 23001 ft 424 kts 26°
2026-05-06 16:33 50.03895 -1.81384 23003 ft 424 kts 26°
2026-05-06 16:34 50.09168 -1.77232 22998 ft 424 kts 26°
2026-05-06 16:34 50.11781 -1.75081 22996 ft 424 kts 31°
2026-05-06 16:34 50.14181 -1.72399 22995 ft 425 kts 39°
2026-05-06 16:34 50.16461 -1.69433 22990 ft 426 kts 39°
2026-05-06 16:35 50.18708 -1.66515 22997 ft 425 kts 39°
2026-05-06 16:35 50.20990 -1.63554 23001 ft 426 kts 39°
2026-05-06 16:35 50.23270 -1.60599 22997 ft 426 kts 39°
2026-05-06 16:35 50.25543 -1.57648 22996 ft 425 kts 39°
2026-05-06 16:36 50.27815 -1.54691 22991 ft 426 kts 39°
2026-05-06 16:36 50.30096 -1.51732 22991 ft 425 kts 39°
2026-05-06 16:36 50.32388 -1.48766 22992 ft 425 kts 39°
2026-05-06 16:36 50.34642 -1.45855 22993 ft 425 kts 39°
2026-05-06 16:37 50.36924 -1.42901 22987 ft 426 kts 39°
2026-05-06 16:37 50.39199 -1.39938 22983 ft 425 kts 39°
2026-05-06 16:37 50.41473 -1.36967 22990 ft 425 kts 39°
2026-05-06 16:37 50.43764 -1.33976 22270 ft 430 kts 39°
2026-05-06 16:38 50.46079 -1.30946 21175 ft 435 kts 39°
2026-05-06 16:38 50.48395 -1.27910 20302 ft 433 kts 39°
2026-05-06 16:38 50.50702 -1.24886 19588 ft 429 kts 39°
2026-05-06 16:38 50.52982 -1.21900 18907 ft 424 kts 39°
2026-05-06 16:39 50.55239 -1.18941 18341 ft 420 kts 39°
2026-05-06 16:39 50.57463 -1.16021 17731 ft 412 kts 39°
2026-05-06 16:39 50.59620 -1.13181 17114 ft 407 kts 39°
2026-05-06 16:39 50.61776 -1.10336 16500 ft 402 kts 39°
2026-05-06 16:40 50.63912 -1.07518 15924 ft 397 kts 39°
2026-05-06 16:40 50.65958 -1.04638 15379 ft 392 kts 45°
2026-05-06 16:40 50.67722 -1.01383 14833 ft 388 kts 50°
2026-05-06 16:40 50.69416 -0.98101 14296 ft 383 kts 50°
2026-05-06 16:41 50.71090 -0.94869 13903 ft 375 kts 50°
2026-05-06 16:41 50.72706 -0.91757 13784 ft 359 kts 50°
2026-05-06 16:41 50.74257 -0.88773 13650 ft 344 kts 50°
2026-05-06 16:41 50.75723 -0.85945 13520 ft 330 kts 50°
2026-05-06 16:42 50.77151 -0.83183 13389 ft 318 kts 50°
2026-05-06 16:42 50.78519 -0.80529 13251 ft 306 kts 50°
2026-05-06 16:42 50.79843 -0.77945 13043 ft 298 kts 52°
2026-05-06 16:42 50.80911 -0.75140 12955 ft 298 kts 65°
2026-05-06 16:43 50.81529 -0.72011 12715 ft 298 kts 78°
2026-05-06 16:43 50.81893 -0.68787 12464 ft 298 kts 78°
2026-05-06 16:43 50.82263 -0.65574 12222 ft 296 kts 78°
2026-05-06 16:43 50.82636 -0.62373 11972 ft 296 kts 78°
2026-05-06 16:44 50.83009 -0.59178 11752 ft 295 kts 78°
2026-05-06 16:44 50.83378 -0.56034 11503 ft 294 kts 78°
2026-05-06 16:44 50.83744 -0.52892 11267 ft 293 kts 78°
2026-05-06 16:44 50.84115 -0.49692 11030 ft 292 kts 78°
2026-05-06 16:45 50.84480 -0.46534 10793 ft 291 kts 78°
2026-05-06 16:45 50.84842 -0.43381 10551 ft 290 kts 78°
2026-05-06 16:45 50.85200 -0.40239 10319 ft 290 kts 78°
2026-05-06 16:45 50.85557 -0.37098 10088 ft 289 kts 78°
2026-05-06 16:46 50.85913 -0.33973 9850 ft 289 kts 78°
2026-05-06 16:46 50.86266 -0.30850 9601 ft 287 kts 78°
2026-05-06 16:46 50.86618 -0.27738 9355 ft 286 kts 78°
2026-05-06 16:46 50.86969 -0.24637 9119 ft 285 kts 78°
2026-05-06 16:47 50.87315 -0.21553 8900 ft 284 kts 78°
2026-05-06 16:47 50.87661 -0.18459 8664 ft 283 kts 78°
2026-05-06 16:47 50.88000 -0.15407 8465 ft 278 kts 78°
2026-05-06 16:47 50.88324 -0.12491 8338 ft 266 kts 78°
2026-05-06 16:48 50.88638 -0.09679 8198 ft 254 kts 77°
2026-05-06 16:48 50.89113 -0.07065 8053 ft 239 kts 54°
2026-05-06 16:48 50.90349 -0.05378 7995 ft 235 kts 21°
2026-05-06 16:48 50.91892 -0.04877 7883 ft 221 kts 357°
2026-05-06 16:49 50.93346 -0.05379 7774 ft 210 kts 335°
2026-05-06 16:49 50.94499 -0.06667 7693 ft 197 kts 317°
2026-05-06 16:49 50.95472 -0.08135 7575 ft 192 kts 318°
2026-05-06 16:49 50.96416 -0.09622 7465 ft 192 kts 311°
2026-05-06 16:50 50.97093 -0.11445 7365 ft 195 kts 291°
2026-05-06 16:50 50.97469 -0.13490 7261 ft 195 kts 287°
2026-05-06 16:50 50.97801 -0.15605 7159 ft 195 kts 286°
2026-05-06 16:50 50.98015 -0.16993 7093 ft 195 kts 286°
2026-05-06 16:51 50.98438 -0.19760 6961 ft 194 kts 286°
2026-05-06 16:51 50.98752 -0.21838 6831 ft 193 kts 286°
2026-05-06 16:51 50.99066 -0.23915 6715 ft 193 kts 286°
2026-05-06 16:51 50.99380 -0.25987 6594 ft 193 kts 286°
2026-05-06 16:52 50.99587 -0.27357 6530 ft 192 kts 286°
2026-05-06 16:52 50.99900 -0.29439 6412 ft 192 kts 286°
2026-05-06 16:52 51.00207 -0.31479 6283 ft 192 kts 286°
2026-05-06 16:52 51.00513 -0.33534 6007 ft 191 kts 286°
2026-05-06 16:53 51.00958 -0.35493 5663 ft 187 kts 306°
2026-05-06 16:53 51.01900 -0.36817 5372 ft 177 kts 332°
2026-05-06 16:53 51.02949 -0.37783 5115 ft 173 kts 331°
2026-05-06 16:53 51.03986 -0.38749 4855 ft 173 kts 332°
2026-05-06 16:54 51.05024 -0.39722 4599 ft 173 kts 331°
2026-05-06 16:54 51.06063 -0.40697 4344 ft 173 kts 331°
2026-05-06 16:54 51.07104 -0.41675 4087 ft 174 kts 332°
2026-05-06 16:54 51.08142 -0.42653 3843 ft 174 kts 332°
2026-05-06 16:55 51.09202 -0.43530 3588 ft 170 kts 346°
2026-05-06 16:55 51.10347 -0.43487 3376 ft 167 kts 19°
2026-05-06 16:55 51.11281 -0.42416 3007 ft 168 kts 51°
2026-05-06 16:55 51.11786 -0.40756 2784 ft 170 kts 73°
2026-05-06 16:56 51.12033 -0.38994 2606 ft 152 kts 76°
2026-05-06 16:56 51.12252 -0.37428 2432 ft 142 kts 76°
2026-05-06 16:56 51.12467 -0.35896 2239 ft 141 kts 76°
2026-05-06 16:56 51.12681 -0.34373 2047 ft 141 kts 75°
2026-05-06 16:57 51.12894 -0.32847 1855 ft 140 kts 76°
2026-05-06 16:57 51.13107 -0.31325 1658 ft 140 kts 76°
2026-05-06 16:57 51.13318 -0.29809 1450 ft 140 kts 76°
2026-05-06 16:57 51.13529 -0.28295 1230 ft 140 kts 75°
2026-05-06 16:58 51.13738 -0.26792 1024 ft 140 kts 74°
2026-05-06 16:58 51.13946 -0.25294 828 ft 137 kts 73°
2026-05-06 16:58 51.14152 -0.23814 641 ft 138 kts 73°
2026-05-06 16:58 51.14362 -0.22312 462 ft 137 kts 73°
2026-05-06 16:59 51.14565 -0.20858 267 ft 136 kts 74°
2026-05-06 16:59 51.14765 -0.19457 214 ft 97 kts 76°
2026-05-06 16:59 51.14860 -0.18729 216 ft 23 kts 76°
2026-05-06 16:59 51.14941 -0.18514 214 ft 23 kts 51°
2026-05-06 17:00 51.14998 -0.18402 216 ft 0 kts 52°
2026-05-06 17:00 51.15003 -0.18392 226 ft 3 kts 52°
2026-05-06 17:00 51.15013 -0.18371 238 ft 2 kts 52°
2026-05-06 17:00 51.15018 -0.18360 195 ft 2 kts 52°
2026-05-06 17:01 51.15033 -0.18329 209 ft 4 kts 52°
2026-05-06 17:01 51.15038 -0.18320 206 ft 0 kts 52°
2026-05-06 17:01 51.15043 -0.18308 209 ft 4 kts 52°
2026-05-06 17:01 51.15065 -0.18264 209 ft 5 kts 52°
2026-05-06 17:02 51.15107 -0.18198 206 ft 10 kts 29°
2026-05-06 17:02 51.15180 -0.18204 213 ft 12 kts 347°
2026-05-06 17:02 51.15272 -0.18236 206 ft 15 kts 348°
2026-05-06 17:02 51.15381 -0.18274 202 ft 17 kts 347°
2026-05-06 17:03 51.15505 -0.18315 204 ft 19 kts 349°
2026-05-06 17:03 51.15613 -0.18239 208 ft 18 kts 33°
2026-05-06 17:03 51.15681 -0.18091 208 ft 17 kts 77°
2026-05-06 17:03 51.15708 -0.17900 210 ft 18 kts 78°
2026-05-06 17:04 51.15736 -0.17693 211 ft 20 kts 77°
2026-05-06 17:04 51.15766 -0.17474 214 ft 21 kts 78°
2026-05-06 17:04 51.15797 -0.17247 206 ft 18 kts 78°
2026-05-06 17:04 51.15831 -0.17090 204 ft 5 kts 21°
2026-05-06 17:05 51.15880 -0.17084 203 ft 7 kts 342°
2026-05-06 17:05 51.15898 -0.17105 215 ft 9 kts 316°
2026-05-06 17:05 51.15933 -0.17162 203 ft 2 kts 315°
2026-05-06 17:05 51.15934 -0.17163 203 ft 0 kts 315°